Location: Guadanolo
(41.9167°N, 12.9333°E)
Time: 23:05:18
(UTC+00:00)

Sich 1 Rocket - Pass Details

Date: 16 September 2019
Orbit: 617 x 652 km, 82.5° (Epoch: 17 October)

Event Time Altitude Azimuth Distance (km) Brightness Sun altitude
Rises 17:33:43 0° 194° (SSW) 2,890 7.1 -4.0°
Reaches altitude 10° 17:35:58 10° 198° (SSW) 1,984 6.3 -4.4°
Maximum altitude 17:40:19 63° 280° (W) 696 4.2 -5.2°
Drops below altitude 10° 17:44:41 10° 1° (N) 1,990 6.3 -6.0°
Sets 17:46:56 0° 5° (N) 2,900 7.1 -6.4°
